Regional Weather Roundup
Issued by NWS

Home | Current Version | Previous Version | Text Only | Print | Product List | Glossary Off
Versions: 1 2 3 4 5 6 7 8 9 10 11 12 13 14 15 16 17 18 19 20 21 22 23 24 25 26 27 28 29 30 31 32 33 34 35 36 37 38 39 40 41 42 43 44 45 46 47 48 49 50

000
ASUS43 KMKX 050500
RWRWI

WISCONSIN REGIONAL WEATHER ROUNDUP
NATIONAL WEATHER SERVICE MILWAUKEE/SULLIVAN WI
1200 AM CDT TUE MAY 05 2015

NOTE: "FAIR" INDICATES FEW OR NO CLOUDS BELOW 12,000 FEET WITH NO
SIGNIFICANT WEATHER AND/OR OBSTRUCTIONS TO VISIBILITY.

WIZ001-002-006>008-014>016-023>028-050600-
NORTHWEST WISCONSIN

CITY           SKY/WX    TMP DP  RH WIND       PRES   REMARKS
SUPERIOR ARPT  CLEAR     40  31  72 NE3       30.24R
ASHLAND        CLEAR     40  37  89 CALM      30.25R
HAYWARD        CLEAR     41  33  73 CALM      30.24R
SIREN          CLEAR     42  28  58 CALM      30.22S
CUMBERLAND     CLEAR     48  30  49 NE5       30.22S
RICE LAKE      CLEAR     50  29  44 CALM      30.23S
CHETEK         CLEAR     56  30  36 NE3       30.22R
LADYSMITH      CLEAR     52  25  36 NE6       30.24R
EAU CLAIRE     NOT AVBL
MENOMONIE      PTCLDY    52  42  67 NW3       30.20S
NEW RICHMOND   CLEAR     48  35  62 NE5       30.19F
OSCEOLA        CLEAR     47  38  71 CALM      30.22F
$$

WIZ003>005-009-010-017-018-050600-
NORTH CENTRAL WISCONSIN

CITY           SKY/WX    TMP DP  RH WIND       PRES   REMARKS
MANITOWISH WTR CLEAR     38  32  80 CALM      30.25R
ARBOR VITAE    CLEAR     43  27  54 CALM      30.25S
WOODRUFF       CLEAR     43  27  54 CALM      30.25S
RHINELANDER    CLEAR     47  32  56 E3        30.27R
EAGLE RIVER    CLEAR     41  30  64 CALM      30.26R
LAND O LAKES   CLEAR     37  32  79 E5        30.27R WCI  34
PHILLIPS       CLEAR     45  21  39 CALM      30.23S
TOMAHAWK       CLEAR     43  30  59 CALM      30.26R
MEDFORD        CLEAR     49  29  44 E8        30.22R
MERRILL        CLEAR     50  40  68 CALM      30.25R
$$

WIZ029-030-035-036-043>047-050600-
CENTRAL WISCONSIN

CITY           SKY/WX    TMP DP  RH WIND       PRES   REMARKS
WAUSAU         PTCLDY    52  38  58 E9        30.23R
MOSINEE        PTCLDY    50  41  71 E7        30.25R
MARSHFIELD     PTCLDY    54  40  59 E8        30.22R
STEVENS POINT  PTCLDY    50  39  66 E6        30.24R
WAUPACA        MOCLDY    55  39  54 NE5       30.24R
WAUTOMA        NOT AVBL
WISC RAPIDS    PTCLDY    54  40  59 E8        30.23R
CAMP DOUGLAS   NOT AVBL
$$

WIZ011>013-019>022-031-037>040-048>050-050600-
NORTHEAST WISCONSIN

CITY           SKY/WX    TMP DP  RH WIND       PRES   REMARKS
ANTIGO         CLEAR     49  39  69 E3        30.27R
SHAWANO        PTCLDY    53  38  58 E9        30.26R
OCONTO         MOCLDY    49  37  61 NE3       30.26S
STURGEON BAY   PTCLDY    48  30  49 E7        30.30R
GREEN BAY      MOCLDY    51  36  56 E6        30.25R
MANITOWOC      NOT AVBL
APPLETON       CLOUDY    54  34  47 NE6       30.23S
CLINTONVILLE   MOCLDY    50  37  62 E5        30.24S
OSHKOSH        CLOUDY    55  37  50 E8        30.22S
$$

WIZ032>034-041-042-053>061-050600-
SOUTHWEST WISCONSIN

CITY           SKY/WX    TMP DP  RH WIND       PRES   REMARKS
LA CROSSE      MOCLDY    58  45  62 E3        30.16S
SPARTA         PTCLDY    47  41  79 CALM      30.18S
VIROQUA        MOCLDY    55  41  58 E7        30.17S
BOSCOBEL       CLOUDY    66  52  60 E5G18     30.15S
PRAIRIE DU CHI CLOUDY    63  54  72 CALM      30.14R
PLATTEVILLE    CLOUDY    61  54  77 E14       30.17R
$$

WIZ056-057-062-063-064-067-068-050600-
SOUTH CENTRAL WISCONSIN

CITY           SKY/WX    TMP DP  RH WIND       PRES   REMARKS
REEDSBURG      CLOUDY    60  38  44 CALM      30.18R
BARABOO/DELLS  CLOUDY    57  34  41 E6        30.19R
LONE ROCK      NOT AVBL
MINERAL POINT  LGT RAIN  61  41  48 E8        30.18R
MADISON        CLOUDY    58  36  43 SE9       30.19R
MIDDLETON      CLOUDY    61  36  39 E5        30.19S
WATERTOWN      MOCLDY    54  39  57 E5        30.20R
MONROE         LGT RAIN  57  43  58 E5        30.19R
JANESVILLE     CLOUDY    55  37  50 E8        30.18R
$$

WIZ051-052-058>065-066-070>072-050600-
SOUTHEAST WISCONSIN

CITY           SKY/WX    TMP DP  RH WIND       PRES   REMARKS
MILWAUKEE      MOCLDY    51  34  52 N6        30.21S
WAUKESHA       PTCLDY    50  34  53 E3        30.21S
MILWAUKEE/TIMM MOCLDY    52  32  46 CALM      30.22S
RACINE         PTCLDY    50  35  56 N8        30.21F
BURLINGTON     MOCLDY    49  37  61 CALM      30.20R
KENOSHA        PTCLDY    49  38  65 CALM      30.20S
FOND DU LAC    CLOUDY    54  34  46 E5        30.22R
SHEBOYGAN      PTCLDY    46  35  65 NE8       30.22S
WEST BEND      PTCLDY    48  36  61 CALM      30.21F
JUNEAU         CLOUDY    53  38  56 E6        30.22R
$$

LSZ147-162-050600-
LAKE SUPERIOR

STATION/POSITION TIME  TEMP    WIND        PRES    WAVE
                       AIR SEA DIR/SP/G            HT/PER
                 (UTC) (F)     (DEG/KT/KT) (MB)    (FT/S)
W MID LAKE BUOY  0350   40 35  360/  4/  4 1024.8R   0
DEVILS ISLAND    0400           50/  7/  8 1024.5R
PORT WING        0400   48     160/  5/  6 1023.4R
SAXON HARBOR     0400   45        CALM     1023.0
$$

LMZ867-665-643>646-050600-
LAKE MICHIGAN

STATION/POSITION TIME  TEMP    WIND        PRES    WAVE
                       AIR SEA DIR/SP/G            HT/PER
                 (UTC) (F)     (DEG/KT/KT) (MB)    (FT/S)
CHAMBERS ISLAND  0400   49      80/  6/ 11 1025.1R
NORTHPORT PIER   0400   46     160/  3/  6 1025.1R
SISTER BAY       0402   45        CALM       N/A
KEWAUNEE LAKESHO 0412   47      50/  7/ 10 1023.3S
SHEBOYGAN LAKESH 0400   49      30/ 14/ 16 1023.7R
PORT WASHINGTON  0400   53     340/  3/  4 1023.7R
ATWATER BUOY     0400   49     350/  6/  8 1024.2S
MILWAUKEE LAKESH 0400   54      10/  5/  7   N/A
KENOSHA   LAKESH 0400   51     360/  5/  6 1022.4F
$$

TC  - TEMPERATURE IN CELSIUS
VSB - VISIBILITY IN STATUTE MILES
WCI - WIND CHILL INDEX
HX  - HEAT INDEX




USA.gov is the U.S. government's official web portal to all federal, state and local government web resources and services.